EDT,Max TemperatureF,Mean TemperatureF,Min TemperatureF,Max Dew PointF,MeanDew PointF,Min DewpointF,Max Humidity, Mean Humidity, Min Humidity, Max Sea Level PressureIn, Mean Sea Level PressureIn, Min Sea Level PressureIn, Max VisibilityMiles, Mean VisibilityMiles, Min VisibilityMiles, Max Wind SpeedMPH, Mean Wind SpeedMPH, Max Gust SpeedMPH,PrecipitationIn, CloudCover, Events, WindDirDegrees
2013-4-1,44,36,28,39,21,9,87,59,38,29.97,29.83,29.64,10,10,2,17,10,31,0.00,6,,278
2013-4-2,35,28,21,21,13,9,74,55,35,30.13,30.06,29.97,10,10,5,24,9,28,0.00,6,,281
2013-4-3,33,27,21,18,13,10,74,54,41,30.38,30.26,30.13,10,10,10,18,7,29,0.00,3,,296
2013-4-4,53,34,15,18,11,9,80,45,16,30.34,30.16,29.94,10,10,10,12,4,17,0.00,0,,167
2013-4-5,46,37,28,28,18,10,64,46,33,30.15,30.00,29.89,10,10,10,20,7,25,0.00,2,,296
2013-4-6,51,35,19,21,16,12,86,47,21,30.26,30.16,30.01,10,10,8,14,5,18,0.00,1,,139
2013-4-7,69,56,42,43,32,16,71,43,29,30.02,29.91,29.85,10,10,10,23,13,34,0.00,2,,211
2013-4-8,69,51,33,46,40,30,93,62,40,30.07,29.98,29.88,10,10,4,22,7,30,0.00,5,Thunderstorm,154
2013-4-9,71,58,44,54,48,39,88,65,43,30.12,30.01,29.90,10,10,6,17,9,34,0.36,4,Thunderstorm,234
2013-4-10,71,61,51,61,53,48,94,75,53,29.95,29.91,29.82,10,9,0,23,7,37,1.54,7,Thunderstorm,243
2013-4-11,51,48,44,50,46,39,100,90,81,29.91,29.83,29.67,10,5,0,14,6,22,0.30,8,,51
2013-4-12,60,48,37,57,43,30,94,81,58,29.84,29.65,29.50,10,8,3,22,14,31,0.70,8,,203
2013-4-13,42,38,35,32,30,27,81,68,57,29.99,29.89,29.83,10,10,7,20,10,25,0.00,8,,243
2013-4-14,51,40,28,30,28,23,86,64,44,30.13,30.07,30.00,10,10,10,10,6,16,0.00,4,,194
2013-4-15,68,56,44,46,40,30,67,57,43,30.11,30.07,30.00,10,10,10,22,10,28,0.00,5,,142
2013-4-16,69,60,48,57,49,45,93,74,56,30.21,30.11,30.06,10,10,9,17,12,26,0.02,6,,198
2013-4-17,69,56,44,48,38,32,93,55,27,30.29,30.22,30.11,10,10,9,12,6,16,0.00,3,,53
2013-4-18,82,70,57,59,54,48,82,61,42,30.13,29.94,29.78,10,10,10,25,14,33,0.00,3,,161
2013-4-19,69,54,39,57,44,27,93,66,53,29.82,29.67,29.47,10,10,5,24,16,33,0.39,5,,201
2013-4-20,42,35,28,30,24,18,81,61,48,30.38,30.07,29.82,10,10,2,21,13,30,0.00,6,,265
2013-4-21,51,38,24,25,19,18,86,53,28,30.59,30.49,30.39,10,10,9,10,2,,0.00,0,,79
2013-4-22,60,48,35,30,24,19,56,41,29,30.47,30.39,30.30,10,10,10,16,10,23,0.00,0,,125
2013-4-23,68,52,37,34,31,25,70,44,28,30.29,30.14,29.97,10,10,10,14,10,20,0.00,0,,142
2013-4-24,57,46,35,54,41,30,93,77,44,30.13,29.88,29.71,10,9,3,25,11,37,0.49,7,,193
2013-4-25,53,42,30,36,31,27,87,69,38,30.32,30.21,30.13,10,10,6,20,9,28,0.01,4,,231
2013-4-26,57,42,28,37,28,25,93,60,31,30.47,30.41,30.33,10,8,0,8,3,,0.00,2,,222
2013-4-27,69,51,33,34,30,27,81,44,23,30.40,30.31,30.20,10,10,10,15,4,18,0.00,0,,122
2013-4-28,59,54,48,48,42,34,93,70,41,30.19,30.07,29.97,10,9,3,18,12,25,0.46,5,,131
2013-4-29,57,52,48,54,49,45,94,89,82,30.05,29.99,29.95,10,9,2,13,9,20,0.10,8,,137
2013-4-30,69,60,51,54,50,48,94,73,52,30.22,30.14,30.05,10,10,10,18,9,25,0.00,5,,130